Location: Eaton Estates
(41.3089°N, 82.0057°W)
Time: 13:09:18
(UTC+00:00)

IRIDIUM 106 - Pass Details

Date: 17 June 2021
Orbit: 776 x 779 km, 86.4° (Epoch: 26 July)

Event Time Altitude Azimuth Distance (km) Brightness Sun altitude
Rises 08:16:30 0° 356° (N) 3,269 8.3 -14.6°
Reaches altitude 10° 08:18:51 10° 355° (N) 2,337 7.5 -14.3°
Maximum altitude 08:24:05 80° 270° (W) 793 4.3 -13.6°
Enters shadow 08:29:09 11° 183° (S) 2,267 6.3 -13.0°
